Powrót do katalogu

CZ-4C DEB

AktywnySSO
NORAD 43424·DEBRIS·🇨🇳 China

Wystrzelony Aug 27, 2015 z Taiyuan Satellite Launch Center

Loading…

Następne Przeloty (najbliższe 24 godziny)

TLE

ŚwieżeSource: Space-Track

Epoka: Sep 14, 2026, 03:45 UTC

1 43424U 15040C   26257.15641746  .00000034  00000-0  20542-3 0  9996
2 43424 100.3313 225.0489 0151539 112.3351 249.3900 13.10590695523882

Śledź CZ-4C DEB w czasie rzeczywistym z AllMySat

Download on the App Store